timestamp,wind_dir_avg,wind_spd_avg,wind_spd_max_dir,wind_spd_gust,battery_voltage,lat,long
2022-04-15 00:04:01+00:00,202.0,1.14,227.0,2.17,12.49,47.59359,-54.27349
2022-04-15 00:14:00+00:00,207.0,0.89,90.0,2.5,12.41,47.59359,-54.27349
2022-04-15 00:24:00+00:00,271.0,0.41,259.0,2.01,12.41,47.59359,-54.27349
2022-04-15 00:34:00+00:00,88.0,1.03,92.0,2.01,12.41,47.59359,-54.27349
2022-04-15 00:44:00+00:00,213.0,1.46,187.0,2.46,12.41,47.59359,-54.27349
2022-04-15 00:54:00+00:00,131.0,0.3,143.0,2.01,12.41,47.59359,-54.27349
2022-04-15 01:04:00+00:00,61.0,2.98,53.0,4.91,12.41,47.59359,-54.27349
2022-04-15 01:14:01+00:00,47.0,0.16,254.0,1.38,12.33,47.59359,-54.27349
2022-04-15 01:24:01+00:00,55.0,5.88,66.0,9.78,12.33,47.59359,-54.27349
2022-04-15 01:34:01+00:00,61.0,10.22,60.0,11.61,12.33,47.59359,-54.27349
2022-04-15 01:44:01+00:00,64.0,10.71,63.0,11.64,12.33,47.59359,-54.27349
2022-04-15 01:54:01+00:00,60.0,10.69,61.0,11.24,12.33,47.59359,-54.27349
2022-04-15 02:04:01+00:00,45.0,5.26,55.0,6.83,12.33,47.59359,-54.27349
2022-04-15 02:14:01+00:00,31.0,4.52,36.0,5.69,12.33,47.59359,-54.27349
2022-04-15 02:24:01+00:00,340.0,4.47,344.0,5.44,12.33,47.59359,-54.27349
2022-04-15 02:34:01+00:00,336.0,4.43,338.0,4.99,12.33,47.59359,-54.27349
2022-04-15 02:44:01+00:00,359.0,3.78,34.0,4.58,12.33,47.59359,-54.27349
2022-04-15 02:54:01+00:00,327.0,3.76,326.0,4.35,12.33,47.59359,-54.27349
2022-04-15 03:04:01+00:00,336.0,4.34,330.0,4.87,12.33,47.59359,-54.27349
2022-04-15 03:14:01+00:00,339.0,4.33,341.0,4.81,12.25,47.59359,-54.27349
2022-04-15 03:24:01+00:00,329.0,4.23,330.0,4.78,12.25,47.59359,-54.27349
2022-04-15 03:34:01+00:00,344.0,4.18,340.0,5.06,12.25,47.59359,-54.27349
2022-04-15 03:44:01+00:00,344.0,3.94,334.0,4.82,12.25,47.59359,-54.27349
2022-04-15 03:54:01+00:00,332.0,3.39,326.0,4.34,12.25,47.59359,-54.27349
2022-04-15 04:04:01+00:00,351.0,3.42,323.0,4.48,12.25,47.59359,-54.27349
2022-04-15 04:14:01+00:00,333.0,4.5,328.0,5.18,12.25,47.59359,-54.27349
2022-04-15 04:24:01+00:00,332.0,4.65,332.0,5.17,12.25,47.59359,-54.27349
2022-04-15 04:34:01+00:00,334.0,4.63,336.0,5.17,12.25,47.59359,-54.27349
2022-04-15 04:44:01+00:00,337.0,4.98,339.0,5.54,12.25,47.59359,-54.27349
2022-04-15 04:54:01+00:00,340.0,4.2,339.0,4.77,12.25,47.59359,-54.27349
2022-04-15 05:04:01+00:00,335.0,4.9,335.0,5.56,12.25,47.59359,-54.27349
2022-04-15 05:14:01+00:00,357.0,4.36,2.0,4.78,12.17,47.59359,-54.27349
2022-04-15 05:24:01+00:00,3.0,4.43,9.0,4.73,12.17,47.59359,-54.27349
2022-04-15 05:34:01+00:00,1.0,3.98,330.0,4.82,12.17,47.59359,-54.27349
2022-04-15 05:44:01+00:00,339.0,4.16,328.0,4.69,12.17,47.59359,-54.27349
2022-04-15 05:54:01+00:00,341.0,3.78,342.0,5.12,12.17,47.59359,-54.27349
2022-04-15 06:04:01+00:00,22.0,3.37,42.0,4.78,12.17,47.59359,-54.27349
2022-04-15 06:14:01+00:00,29.0,3.45,40.0,4.87,12.09,47.59359,-54.27349
2022-04-15 06:24:01+00:00,44.0,3.09,51.0,4.38,12.09,47.59359,-54.27349
2022-04-15 06:34:01+00:00,43.0,2.77,60.0,4.02,12.09,47.59359,-54.27349
2022-04-15 06:44:01+00:00,307.0,2.45,311.0,2.67,12.09,47.59359,-54.27349
2022-04-15 06:54:01+00:00,315.0,2.8,319.0,3.17,12.09,47.59359,-54.27349
2022-04-15 07:04:01+00:00,294.0,2.24,296.0,2.6,12.09,47.59359,-54.27349
2022-04-15 07:14:00+00:00,278.0,2.08,277.0,2.37,12.09,47.59359,-54.27349
2022-04-15 07:24:00+00:00,290.0,2.19,290.0,2.55,12.09,47.59359,-54.27349
2022-04-15 07:34:00+00:00,77.0,0.53,261.0,1.43,12.09,47.59359,-54.27349
2022-04-15 07:44:00+00:00,331.0,1.11,46.0,1.82,12.09,47.59359,-54.27349
2022-04-15 07:54:00+00:00,333.0,1.22,321.0,1.75,12.09,47.59359,-54.27349
2022-04-15 08:04:00+00:00,346.0,1.49,339.0,1.98,12.09,47.59359,-54.27349
2022-04-15 08:14:01+00:00,319.0,1.43,319.0,1.65,12.09,47.59359,-54.27349
2022-04-15 08:24:01+00:00,342.0,1.3,340.0,1.88,12.09,47.59359,-54.27349
2022-04-15 08:34:01+00:00,352.0,0.95,340.0,1.2,12.09,47.59359,-54.27349
2022-04-15 08:44:01+00:00,340.0,1.44,343.0,1.67,12.09,47.59359,-54.27349
2022-04-15 08:54:01+00:00,347.0,1.24,327.0,1.67,12.09,47.59359,-54.27349
2022-04-15 09:04:01+00:00,313.0,1.13,309.0,1.36,12.09,47.59359,-54.27349
2022-04-15 09:14:01+00:00,326.0,1.35,323.0,1.73,12.09,47.59359,-54.27349
2022-04-15 09:24:01+00:00,325.0,0.79,309.0,1.11,12.09,47.59359,-54.27349
2022-04-15 09:34:01+00:00,280.0,0.88,283.0,1.06,12.09,47.59359,-54.27349
2022-04-15 09:44:01+00:00,221.0,1.29,228.0,1.59,12.09,47.59359,-54.27349
2022-04-15 09:54:01+00:00,209.0,0.7,256.0,2.17,12.09,47.59359,-54.27349
2022-04-15 10:04:01+00:00,240.0,2.07,247.0,3.15,12.09,47.59359,-54.27349
2022-04-15 10:14:01+00:00,242.0,2.91,238.0,3.38,13.37,47.59359,-54.27349
2022-04-15 10:24:01+00:00,214.0,1.52,238.0,3.33,13.37,47.59359,-54.27349
2022-04-15 10:34:01+00:00,221.0,1.55,245.0,2.84,13.37,47.59359,-54.27349
2022-04-15 10:44:01+00:00,225.0,2.51,230.0,3.06,13.37,47.59359,-54.27349
2022-04-15 10:54:01+00:00,218.0,2.49,228.0,3.04,13.37,47.59359,-54.27349
2022-04-15 11:04:01+00:00,208.0,2.33,220.0,2.77,13.37,47.59359,-54.27349
2022-04-15 11:14:01+00:00,197.0,2.89,199.0,3.26,13.76,47.59359,-54.27349
2022-04-15 11:24:01+00:00,201.0,2.67,223.0,3.87,13.76,47.59359,-54.27349
2022-04-15 11:34:01+00:00,228.0,3.99,220.0,4.8,13.76,47.59359,-54.27349
2022-04-15 11:44:01+00:00,215.0,4.7,218.0,5.31,13.76,47.59359,-54.27349
2022-04-15 11:54:01+00:00,234.0,1.92,242.0,3.21,13.76,47.59359,-54.27349
2022-04-15 12:04:01+00:00,238.0,2.19,256.0,3.45,13.76,47.59359,-54.27349
2022-04-15 12:14:00+00:00,245.0,3.2,246.0,3.65,14.32,47.59359,-54.27349
2022-04-15 12:24:00+00:00,232.0,2.53,234.0,3.28,14.32,47.59359,-54.27349
2022-04-15 12:34:00+00:00,220.0,4.84,222.0,5.32,14.32,47.59359,-54.27349
2022-04-15 12:44:00+00:00,219.0,5.3,220.0,5.91,14.32,47.59359,-54.27349
2022-04-15 12:54:00+00:00,219.0,5.19,218.0,5.99,14.32,47.59359,-54.27349
2022-04-15 13:04:00+00:00,215.0,4.91,217.0,5.57,14.32,47.59359,-54.27349
2022-04-15 13:14:00+00:00,209.0,3.79,222.0,4.68,13.6,47.59359,-54.27349
2022-04-15 13:24:00+00:00,217.0,5.39,219.0,5.83,13.6,47.59359,-54.27349
2022-04-15 13:34:00+00:00,220.0,5.12,217.0,5.84,13.6,47.59359,-54.27349
2022-04-15 13:44:00+00:00,231.0,7.11,242.0,9.99,13.6,47.59359,-54.27349
2022-04-15 13:54:00+00:00,225.0,7.33,238.0,9.7,13.6,47.59359,-54.27349
2022-04-15 14:04:00+00:00,228.0,7.69,238.0,10.37,13.6,47.59359,-54.27349
2022-04-15 14:14:01+00:00,231.0,9.91,236.0,11.17,14.4,47.59359,-54.27349
2022-04-15 14:24:01+00:00,220.0,7.38,235.0,9.88,14.4,47.59359,-54.27349
2022-04-15 14:34:01+00:00,221.0,8.0,232.0,10.73,14.4,47.59359,-54.27349
2022-04-15 14:44:01+00:00,214.0,7.6,223.0,9.25,14.4,47.59359,-54.27349
2022-04-15 14:54:01+00:00,207.0,7.66,207.0,8.53,14.4,47.59359,-54.27349
2022-04-15 15:04:01+00:00,209.0,8.66,215.0,9.21,14.4,47.59359,-54.27349
2022-04-15 15:14:01+00:00,207.0,8.03,213.0,9.37,13.6,47.59359,-54.27349
2022-04-15 15:24:01+00:00,204.0,8.5,205.0,9.42,13.6,47.59359,-54.27349
2022-04-15 15:34:01+00:00,219.0,7.99,233.0,10.3,13.6,47.59359,-54.27349
2022-04-15 15:44:01+00:00,211.0,7.96,221.0,9.75,13.6,47.59359,-54.27349
2022-04-15 15:54:01+00:00,225.0,9.83,228.0,11.41,13.6,47.59359,-54.27349
2022-04-15 16:04:01+00:00,214.0,9.12,226.0,11.17,13.6,47.59359,-54.27349
2022-04-15 16:14:00+00:00,217.0,9.08,228.0,11.53,13.6,47.59359,-54.27349
2022-04-15 16:24:00+00:00,211.0,8.59,226.0,10.86,13.6,47.59359,-54.27349
2022-04-15 16:34:00+00:00,208.0,9.11,222.0,10.83,13.6,47.59359,-54.27349
2022-04-15 16:44:00+00:00,206.0,7.81,206.0,8.49,13.6,47.59359,-54.27349
2022-04-15 16:54:00+00:00,204.0,8.46,203.0,9.14,13.6,47.59359,-54.27349
2022-04-15 17:04:00+00:00,204.0,9.08,213.0,9.98,13.6,47.59359,-54.27349
2022-04-15 17:14:01+00:00,219.0,9.18,224.0,11.23,14.4,47.59359,-54.27349
2022-04-15 17:24:01+00:00,214.0,9.6,226.0,11.41,14.4,47.59359,-54.27349
2022-04-15 17:34:01+00:00,211.0,9.12,227.0,11.57,14.4,47.59359,-54.27349
2022-04-15 17:44:01+00:00,215.0,9.79,224.0,11.77,14.4,47.59359,-54.27349
2022-04-15 17:54:01+00:00,205.0,9.1,211.0,10.56,14.4,47.59359,-54.27349
2022-04-15 18:04:01+00:00,217.0,10.77,222.0,12.92,14.4,47.59359,-54.27349
2022-04-15 18:14:00+00:00,212.0,10.66,218.0,12.44,14.32,47.59359,-54.27349
2022-04-15 18:24:00+00:00,209.0,10.29,220.0,12.26,14.32,47.59359,-54.27349
2022-04-15 18:34:00+00:00,205.0,9.12,221.0,12.09,14.32,47.59359,-54.27349
2022-04-15 18:44:00+00:00,204.0,8.8,212.0,9.8,14.32,47.59359,-54.27349
2022-04-15 18:54:00+00:00,210.0,9.55,225.0,11.87,14.32,47.59359,-54.27349
2022-04-15 19:04:00+00:00,205.0,9.22,228.0,11.24,14.32,47.59359,-54.27349
2022-04-15 19:14:01+00:00,207.0,9.07,223.0,11.18,13.68,47.59359,-54.27349
2022-04-15 19:24:01+00:00,220.0,10.54,225.0,12.43,13.68,47.59359,-54.27349
2022-04-15 19:34:01+00:00,224.0,11.07,227.0,12.21,13.68,47.59359,-54.27349
2022-04-15 19:44:01+00:00,219.0,10.63,225.0,12.8,13.68,47.59359,-54.27349
2022-04-15 19:54:01+00:00,219.0,9.95,228.0,12.83,13.68,47.59359,-54.27349
2022-04-15 20:04:01+00:00,228.0,11.77,228.0,12.85,13.68,47.59359,-54.27349
2022-04-15 20:14:01+00:00,229.0,11.15,231.0,12.62,13.84,47.59359,-54.27349
2022-04-15 20:24:01+00:00,226.0,10.99,225.0,12.56,13.84,47.59359,-54.27349
2022-04-15 20:34:01+00:00,227.0,12.51,226.0,13.45,13.84,47.59359,-54.27349
2022-04-15 20:44:01+00:00,219.0,10.93,226.0,12.84,13.84,47.59359,-54.27349
2022-04-15 20:54:01+00:00,221.0,10.21,226.0,11.99,13.84,47.59359,-54.27349
2022-04-15 21:04:01+00:00,211.0,9.88,224.0,12.55,13.84,47.59359,-54.27349
2022-04-15 21:14:01+00:00,231.0,11.31,234.0,12.18,13.68,47.59359,-54.27349
2022-04-15 21:24:01+00:00,207.0,7.68,227.0,10.34,13.68,47.59359,-54.27349
2022-04-15 21:34:01+00:00,208.0,8.16,204.0,9.7,13.68,47.59359,-54.27349
2022-04-15 21:44:01+00:00,215.0,7.76,229.0,10.96,13.68,47.59359,-54.27349
2022-04-15 21:54:01+00:00,202.0,8.4,210.0,10.09,13.68,47.59359,-54.27349
2022-04-15 22:04:01+00:00,214.0,9.57,222.0,11.93,13.68,47.59359,-54.27349
2022-04-15 22:14:01+00:00,228.0,11.86,228.0,12.83,13.05,47.59359,-54.27349
2022-04-15 22:24:01+00:00,220.0,9.58,227.0,11.77,13.05,47.59359,-54.27349
2022-04-15 22:34:01+00:00,230.0,8.28,235.0,10.73,13.05,47.59359,-54.27349
2022-04-15 22:44:01+00:00,222.0,6.74,242.0,10.5,13.05,47.59359,-54.27349
2022-04-15 22:54:01+00:00,215.0,8.08,229.0,10.77,13.05,47.59359,-54.27349
2022-04-15 23:04:01+00:00,172.0,6.32,164.0,7.47,13.05,47.59359,-54.27349
2022-04-15 23:14:01+00:00,215.0,6.43,215.0,8.44,12.49,47.59359,-54.27349
2022-04-15 23:24:01+00:00,210.0,7.26,232.0,10.94,12.49,47.59359,-54.27349
2022-04-15 23:34:01+00:00,212.0,6.61,214.0,7.39,12.49,47.59359,-54.27349
2022-04-15 23:44:01+00:00,211.0,4.75,212.0,5.85,12.49,47.59359,-54.27349
2022-04-15 23:54:01+00:00,162.0,4.05,150.0,4.82,12.49,47.59359,-54.27349
